"startDT [UTC]","vpos","CH4 [ppm]","stdev(CH4) [ppm]","CO2 [ppm]","stdev(CO2) [ppm]","H2O_reported [%]","stdev(H2O_reported)","CavityPressure [torr]","CavityTemp [C]","OutletValve","CH4_dry [ppm]","CO2_dry [ppm]","DasTemp [C]","EtalonTemp [C]","WarmBoxTemp [C]","MPVPosition","T_ECpre [C]","T_EC1 [C]","T_EC2 [C]","p_inlet [hPa]","p_in [hPa]","p_out [hPa]","T_inlet [C]","RH_inlet [%]","dwpt_inlet [C]","T_vent [C]","RH_vent [%]","dwpt_vent [C]","flow_vent [l min-1]","flow_inlet [l min-1]","dwpt_sample [C]","T_room [C]"
2013-09-05 00:00:00,0.0,1.97337,0.00027,390.441,0.065,1.1391,0.0021,139.996,45.000,31875.43551,1.99633,395.984,33.375,45.054,45.000,0.00,0.13,-272.56,-272.62,-24,584,-7,24.2,29.5,5.2,24.1,30.3,5.6,5.73,2.49,5.9,26.6
2013-09-05 00:01:00,0.0,1.97370,0.00048,390.385,0.085,1.1415,0.0025,140.004,45.000,31878.44833,1.99663,395.961,33.375,45.054,45.000,0.00,0.13,-272.56,-272.62,-24,584,-7,24.1,29.5,5.2,24.2,30.3,5.6,5.73,2.49,5.9,26.6
2013-09-05 00:02:00,0.0,1.97430,0.00050,390.343,0.051,1.1379,0.0022,140.000,45.000,31876.61329,1.99723,395.880,33.375,45.054,45.000,0.00,0.12,-272.56,-272.62,-24,584,-7,24.2,29.5,5.3,24.2,30.3,5.6,5.73,2.50,5.9,26.7
2013-09-05 00:03:00,0.0,1.97417,0.00023,390.415,0.010,1.1392,0.0015,140.001,45.000,31877.90797,1.99712,395.965,33.375,45.054,45.000,0.00,0.12,-272.56,-272.63,-24,584,-7,24.2,29.5,5.3,24.2,30.3,5.6,5.73,2.51,5.9,26.6
2013-09-05 00:04:00,0.0,1.97458,0.00017,390.407,0.042,1.1379,0.0021,139.997,45.000,31873.97652,1.99747,395.954,33.375,45.054,45.000,0.00,0.12,-272.56,-272.63,-24,584,-7,24.2,29.5,5.3,24.2,30.3,5.6,5.73,2.52,5.9,26.6
2013-09-05 00:05:00,0.0,1.97492,0.00031,390.386,0.018,1.1367,0.0017,139.999,45.000,31873.44907,1.99790,395.923,33.375,45.054,45.000,0.00,0.12,-272.56,-272.63,-24,584,-7,24.2,29.5,5.3,24.2,30.2,5.6,5.73,2.54,5.8,26.8
2013-09-05 00:06:00,0.0,1.97483,0.00067,390.465,0.044,1.1372,0.0016,140.000,45.000,31875.73226,1.99779,396.000,33.375,45.054,45.000,0.00,0.12,-272.56,-272.62,-24,584,-7,24.2,29.4,5.2,24.2,30.3,5.6,5.73,2.55,5.9,26.9
2013-09-05 00:07:00,0.0,1.97476,0.00033,390.589,0.039,1.1394,0.0010,139.997,45.000,31875.24522,1.99764,396.132,33.375,45.054,45.000,0.00,0.12,-272.56,-272.63,-24,584,-7,24.2,29.5,5.2,24.2,30.3,5.6,5.73,2.54,5.9,26.8
2013-09-05 00:08:00,0.0,1.97517,0.00032,390.601,0.073,1.1368,0.0014,139.998,45.000,31875.36264,1.99806,396.153,33.375,45.054,45.000,0.00,0.12,-272.55,-272.62,-24,584,-7,24.2,29.4,5.2,24.2,30.3,5.6,5.73,2.52,5.9,26.6
2013-09-05 00:09:00,0.0,1.97477,0.00044,390.527,0.026,1.1391,0.0015,140.004,45.000,31878.66380,1.99775,396.076,33.375,45.054,45.000,0.00,0.12,-272.55,-272.63,-24,584,-7,24.2,29.5,5.3,24.2,30.3,5.6,5.73,2.50,5.8,26.6
2013-09-05 00:10:00,0.0,1.97507,0.00024,390.526,0.015,1.1385,0.0019,139.999,45.000,31877.11020,1.99804,396.077,33.375,45.054,45.000,0.00,0.12,-272.56,-272.62,-24,584,-6,24.2,29.5,5.3,24.2,30.3,5.7,5.73,2.49,5.9,26.8
2013-09-05 00:11:00,0.0,1.97512,0.00044,390.481,0.062,1.1388,0.0020,139.997,45.000,31878.16918,1.99802,396.029,33.364,45.054,45.000,0.00,0.13,-272.56,-272.63,-24,584,-7,24.2,29.5,5.2,24.2,30.3,5.6,5.73,2.49,5.8,26.7
2013-09-05 00:12:00,0.0,1.97549,0.00031,390.521,0.054,1.1385,0.0021,139.999,45.000,31877.71150,1.99848,396.068,33.369,45.054,45.000,0.00,0.12,-272.56,-272.63,-24,584,-7,24.2,29.5,5.2,24.2,30.3,5.6,5.73,2.49,5.8,26.8
2013-09-05 00:13:00,0.0,1.97548,0.00030,390.491,0.028,1.1380,0.0027,139.999,45.000,31877.18745,1.99843,396.039,33.360,45.054,45.000,0.00,0.12,-272.56,-272.63,-24,584,-7,24.2,29.5,5.3,24.2,30.3,5.6,5.73,2.51,5.9,26.8
2013-09-05 00:14:00,0.0,1.97532,0.00058,390.451,0.041,1.1387,0.0021,140.002,45.000,31878.49916,1.99820,396.003,33.372,45.055,45.000,0.00,0.13,-272.55,-272.62,-24,584,-7,24.2,29.5,5.3,24.2,30.3,5.7,5.73,2.53,5.8,26.9
2013-09-05 00:15:00,0.0,1.97551,0.00033,390.574,0.031,1.1391,0.0025,140.003,45.000,31878.72004,1.99854,396.120,33.373,45.054,45.000,0.00,0.12,-272.56,-272.62,-24,584,-6,24.2,29.5,5.3,24.2,30.3,5.7,5.73,2.55,5.8,26.8
2013-09-05 00:16:00,0.0,1.97608,0.00050,390.562,0.031,1.1378,0.0015,140.000,45.000,31875.85287,1.99898,396.104,33.370,45.054,45.000,0.00,0.12,-272.56,-272.62,-24,584,-7,24.2,29.5,5.2,24.2,30.3,5.6,5.73,2.54,5.8,26.7
2013-09-05 00:17:00,0.0,1.97515,0.00045,390.701,0.053,1.1375,0.0022,140.002,45.000,31878.68280,1.99819,396.239,33.370,45.054,45.000,0.00,0.12,-272.55,-272.62,-24,584,-7,24.2,29.5,5.3,24.2,30.3,5.6,5.73,2.53,5.8,26.8
2013-09-05 00:18:00,0.0,1.97578,0.00028,390.677,0.090,1.1402,0.0020,139.998,45.000,31877.12036,1.99869,396.247,33.368,45.054,45.000,0.00,0.12,-272.56,-272.62,-24,584,-7,24.2,29.5,5.3,24.2,30.4,5.7,5.73,2.51,5.8,26.7
2013-09-05 00:19:00,0.0,1.97591,0.00033,390.592,0.046,1.1399,0.0013,140.004,45.000,31876.91108,1.99886,396.147,33.362,45.054,45.000,0.00,0.12,-272.56,-272.63,-24,584,-7,24.2,29.5,5.2,24.2,30.3,5.7,5.73,2.49,5.8,26.7
2013-09-05 00:20:00,0.0,1.97612,0.00037,390.626,0.040,1.1397,0.0016,139.995,45.000,31874.24387,1.99910,396.178,33.374,45.054,45.000,0.00,0.12,-272.56,-272.62,-24,584,-7,24.2,29.5,5.3,24.2,30.4,5.7,5.73,2.48,5.8,26.8
2013-09-05 00:21:00,0.0,1.97614,0.00039,390.666,0.056,1.1385,0.0021,140.000,45.000,31875.71231,1.99919,396.212,33.374,45.054,45.000,0.00,0.13,-272.55,-272.62,-24,584,-7,24.1,29.6,5.3,24.2,30.4,5.7,5.73,2.49,5.8,26.7
2013-09-05 00:22:00,0.0,1.97609,0.00051,390.664,0.064,1.1408,0.0019,140.000,45.000,31876.16312,1.99907,396.227,33.369,45.054,45.000,0.00,0.12,-272.55,-272.63,-24,584,-7,24.2,29.6,5.3,24.2,30.4,5.7,5.73,2.51,5.8,26.7
2013-09-05 00:23:00,0.0,1.97624,0.00035,390.715,0.035,1.1406,0.0017,139.998,45.000,31873.91401,1.99922,396.271,33.352,45.054,45.000,0.00,0.12,-272.56,-272.63,-24,584,-7,24.2,29.6,5.3,24.2,30.4,5.7,5.73,2.53,5.8,26.7
2013-09-05 00:24:00,0.0,1.97607,0.00031,390.763,0.046,1.1420,0.0019,140.002,45.000,31877.68328,1.99909,396.333,33.331,45.054,45.000,0.00,0.13,-272.56,-272.63,-24,584,-7,24.1,29.6,5.3,24.2,30.5,5.7,5.73,2.54,5.8,26.8
2013-09-05 00:25:00,0.0,1.97661,0.00034,390.647,0.017,1.1420,0.0015,140.004,45.000,31877.36625,1.99958,396.221,33.330,45.055,45.000,0.00,0.12,-272.56,-272.62,-24,584,-7,24.2,29.6,5.3,24.2,30.5,5.7,5.73,2.54,5.8,26.7
2013-09-05 00:26:00,0.0,1.97680,0.00039,390.717,0.028,1.1431,0.0013,140.003,45.000,31876.16093,1.99989,396.287,33.324,45.055,45.000,0.00,0.12,-272.56,-272.63,-24,584,-7,24.2,29.6,5.3,24.2,30.4,5.7,5.73,2.54,5.8,26.7
2013-09-05 00:27:00,0.0,1.97636,0.00050,390.802,0.064,1.1425,0.0020,140.006,45.000,31879.13015,1.99950,396.368,33.314,45.055,45.000,0.00,0.12,-272.56,-272.63,-24,584,-7,24.2,29.7,5.3,24.1,30.5,5.7,5.73,2.52,5.8,26.9
2013-09-05 00:28:00,0.0,1.97642,0.00036,390.792,0.026,1.1439,0.0019,140.003,45.000,31878.59861,1.99954,396.373,33.313,45.055,45.000,0.00,0.12,-272.55,-272.62,-24,584,-7,24.2,29.7,5.3,24.2,30.5,5.7,5.73,2.50,5.8,26.7
2013-09-05 00:29:00,0.0,1.97670,0.00027,390.647,0.055,1.1449,0.0021,140.001,45.000,31878.28212,1.99972,396.237,33.317,45.055,45.000,0.00,0.12,-272.56,-272.63,-24,584,-7,24.2,29.7,5.3,24.2,30.5,5.7,5.73,2.48,5.8,26.7
2013-09-05 00:30:00,0.0,1.97676,0.00039,390.679,0.060,1.1435,0.0015,140.000,45.000,31876.96151,1.99977,396.257,33.333,45.054,45.000,0.00,0.12,-272.56,-272.63,-24,584,-7,24.2,29.7,5.3,24.2,30.5,5.7,5.73,2.49,5.8,26.6
2013-09-05 00:31:00,0.0,1.97699,0.00028,390.705,0.044,1.1444,0.0021,139.999,45.000,31876.46656,2.00005,396.279,33.316,45.054,45.000,0.00,0.12,-272.56,-272.62,-24,584,-7,24.1,29.7,5.3,24.2,30.5,5.8,5.73,2.50,5.8,26.8
2013-09-05 00:32:00,0.0,1.97713,0.00037,390.737,0.045,1.1458,0.0017,139.997,45.000,31874.63663,2.00031,396.325,33.313,45.054,45.000,0.00,0.12,-272.55,-272.63,-24,584,-7,24.2,29.7,5.4,24.2,30.6,5.7,5.73,2.51,5.8,27.0
2013-09-05 00:33:00,0.0,1.97728,0.00028,390.754,0.081,1.1475,0.0021,140.004,45.000,31875.18907,2.00043,396.344,33.313,45.054,45.000,0.00,0.12,-272.56,-272.63,-24,584,-7,24.2,29.7,5.4,24.2,30.6,5.8,5.73,2.53,5.8,26.9
2013-09-05 00:34:00,0.0,1.97718,0.00037,390.652,0.067,1.1457,0.0020,140.004,45.000,31874.68521,2.00040,396.249,33.317,45.054,45.000,0.00,0.12,-272.55,-272.63,-24,584,-7,24.1,29.8,5.3,24.2,30.6,5.8,5.73,2.54,5.8,26.8
2013-09-05 00:35:00,0.0,1.97664,0.00025,390.650,0.039,1.1460,0.0020,140.003,45.000,31876.89188,1.99976,396.247,33.315,45.054,45.000,0.00,0.12,-272.55,-272.63,-24,584,-7,24.2,29.7,5.4,24.2,30.5,5.7,5.73,2.54,5.8,26.7
2013-09-05 00:36:00,0.0,1.97712,0.00039,390.614,0.020,1.1450,0.0019,139.999,45.000,31875.17267,2.00016,396.195,33.313,45.054,45.000,0.00,0.12,-272.55,-272.63,-24,584,-7,24.1,29.7,5.3,24.2,30.6,5.8,5.73,2.53,5.8,26.7
2013-09-05 00:37:00,0.0,1.97720,0.00051,390.676,0.034,1.1466,0.0020,140.001,45.000,31876.15079,2.00038,396.260,33.313,45.054,45.000,0.00,0.12,-272.56,-272.63,-24,584,-7,24.1,29.7,5.3,24.2,30.6,5.8,5.73,2.53,5.8,26.7
2013-09-05 00:38:00,0.0,1.97758,0.00018,390.717,0.030,1.1463,0.0023,140.001,45.000,31875.99641,2.00069,396.309,33.317,45.054,45.000,0.00,0.13,-272.55,-272.62,-24,584,-7,24.1,29.8,5.4,24.2,30.6,5.8,5.73,2.51,5.8,26.6
2013-09-05 00:39:00,0.0,1.97720,0.00035,390.659,0.029,1.1472,0.0024,140.001,45.000,31875.97943,2.00039,396.258,33.315,45.054,45.000,0.00,0.12,-272.56,-272.62,-24,584,-7,24.1,29.8,5.3,24.1,30.6,5.7,5.73,2.49,5.8,26.6
2013-09-05 00:40:00,0.0,1.97799,0.00037,390.654,0.025,1.1456,0.0012,139.999,45.000,31874.06672,2.00108,396.237,33.332,45.054,45.000,0.00,0.12,-272.56,-272.63,-24,584,-7,24.1,29.7,5.3,24.2,30.6,5.8,5.73,2.48,5.8,26.6
2013-09-05 00:41:00,0.0,1.97813,0.00040,390.774,0.027,1.1450,0.0012,139.998,45.000,31872.99683,2.00119,396.351,33.315,45.054,45.000,0.00,0.12,-272.56,-272.62,-24,584,-7,24.1,29.7,5.3,24.1,30.5,5.7,5.73,2.49,5.8,26.7
2013-09-05 00:42:00,0.0,1.97843,0.00016,390.741,0.040,1.1447,0.0019,139.999,45.000,31874.73704,2.00154,396.331,33.315,45.054,45.000,0.00,0.12,-272.56,-272.62,-24,584,-7,24.1,29.7,5.3,24.1,30.5,5.7,5.73,2.50,5.8,26.7
2013-09-05 00:43:00,0.0,1.97853,0.00027,390.762,0.059,1.1460,0.0018,139.998,45.000,31872.63208,2.00169,396.348,33.313,45.054,45.000,0.00,0.12,-272.56,-272.63,-24,584,-7,24.1,29.7,5.3,24.1,30.6,5.7,5.73,2.52,5.8,26.6
2013-09-05 00:44:00,0.0,1.97858,0.00035,390.798,0.028,1.1456,0.0007,140.000,45.000,31870.93770,2.00172,396.380,33.316,45.054,45.000,0.00,0.12,-272.56,-272.63,-24,584,-7,24.1,29.7,5.3,24.1,30.5,5.7,5.73,2.54,5.8,26.8
2013-09-05 00:45:00,0.0,1.97826,0.00020,390.787,0.024,1.1452,0.0025,140.008,45.000,31874.02432,2.00145,396.378,33.313,45.054,45.000,0.00,0.12,-272.55,-272.62,-24,584,-7,24.1,29.7,5.3,24.2,30.6,5.8,5.73,2.54,5.8,26.7
2013-09-05 00:46:00,0.0,1.97857,0.00022,390.786,0.046,1.1447,0.0019,139.998,45.000,31871.54829,2.00162,396.365,33.313,45.054,45.000,0.00,0.12,-272.56,-272.63,-24,584,-7,24.2,29.7,5.3,24.1,30.6,5.7,5.73,2.54,5.8,26.7
2013-09-05 00:47:00,0.0,1.97922,0.00019,390.797,0.040,1.1465,0.0015,140.000,45.000,31871.14273,2.00235,396.393,33.317,45.054,45.000,0.00,0.12,-272.56,-272.63,-24,584,-6,24.1,29.7,5.3,24.1,30.6,5.7,5.73,2.53,5.8,26.7
2013-09-05 00:48:00,0.0,1.97926,0.00033,390.802,0.035,1.1446,0.0018,139.999,45.000,31872.41204,2.00240,396.383,33.313,45.054,45.000,0.00,0.12,-272.55,-272.62,-24,584,-7,24.1,29.7,5.3,24.1,30.6,5.7,5.73,2.51,5.8,26.8
2013-09-05 00:49:00,0.0,1.97947,0.00022,390.882,0.057,1.1436,0.0004,139.999,45.000,31871.66124,2.00258,396.452,33.313,45.054,45.000,0.00,0.12,-272.56,-272.63,-24,584,-6,24.1,29.7,5.3,24.2,30.6,5.8,5.73,2.49,5.8,26.7
2013-09-05 00:50:00,0.0,1.97879,0.00023,390.896,0.036,1.1451,0.0013,140.005,45.000,31875.42233,2.00202,396.487,33.316,45.054,45.000,0.00,0.12,-272.56,-272.63,-24,584,-6,24.1,29.7,5.3,24.1,30.6,5.7,5.73,2.49,5.8,26.6
2013-09-05 00:51:00,0.0,1.97857,0.00038,390.867,0.024,1.1446,0.0013,139.998,45.000,31871.75452,2.00166,396.456,33.322,45.054,45.000,0.00,0.12,-272.56,-272.63,-24,584,-7,24.1,29.8,5.3,24.1,30.6,5.7,5.73,2.49,5.8,26.5
2013-09-05 00:52:00,0.0,1.97846,0.00045,390.858,0.027,1.1453,0.0021,140.002,45.000,31871.85878,2.00165,396.447,33.325,45.054,45.000,0.00,0.12,-272.56,-272.62,-24,584,-7,24.1,29.8,5.3,24.1,30.6,5.7,5.73,2.50,5.8,26.6
2013-09-05 00:53:00,0.0,1.97784,0.00044,390.879,0.015,1.1460,0.0014,140.002,45.000,31873.06276,2.00102,396.466,33.314,45.054,45.000,0.00,0.12,-272.56,-272.63,-24,584,-7,24.1,29.8,5.3,24.1,30.6,5.7,5.73,2.52,5.8,26.9
2013-09-05 00:54:00,0.0,1.97812,0.00028,390.779,0.031,1.1454,0.0017,140.002,45.000,31871.37378,2.00123,396.369,33.311,45.054,45.000,0.00,0.12,-272.56,-272.63,-24,584,-7,24.1,29.8,5.3,24.1,30.6,5.7,5.73,2.54,5.8,26.9
2013-09-05 00:55:00,0.0,1.97777,0.00042,390.880,0.020,1.1468,0.0021,140.001,45.000,31872.16367,2.00099,396.473,33.309,45.054,45.000,0.00,0.13,-272.56,-272.62,-24,584,-7,24.1,29.8,5.3,24.1,30.6,5.7,5.73,2.55,5.8,27.0
2013-09-05 00:56:00,0.0,1.97753,0.00018,390.897,0.045,1.1495,0.0021,140.007,45.000,31876.04624,2.00077,396.501,33.291,45.054,45.000,0.00,0.12,-272.56,-272.63,-23,584,-7,24.2,29.8,5.4,24.1,30.7,5.8,5.73,2.54,5.8,27.0
2013-09-05 00:57:00,0.0,1.97765,0.00039,390.891,0.055,1.1509,0.0016,140.000,45.000,31875.11320,2.00090,396.509,33.246,45.054,45.000,0.00,0.12,-272.56,-272.63,-24,584,-6,24.1,29.9,5.4,24.1,30.7,5.8,5.73,2.51,5.8,27.1
2013-09-05 00:58:00,0.0,1.97732,0.00055,390.865,0.027,1.1487,0.0016,140.002,45.000,31874.71046,2.00056,396.472,33.250,45.055,45.000,0.00,0.12,-272.55,-272.62,-24,584,-6,24.1,29.9,5.4,24.1,30.7,5.8,5.73,2.48,5.8,27.2
2013-09-05 00:59:00,0.0,1.97775,0.00029,390.915,0.034,1.1507,0.0021,139.998,45.000,31872.21782,2.00095,396.530,33.245,45.055,45.000,0.00,0.12,-272.56,-272.62,-24,584,-7,24.1,29.9,5.4,24.1,30.8,5.8,5.73,2.48,5.8,27.4
2013-09-05 01:00:00,0.0,1.97778,0.00032,390.837,0.076,1.1502,0.0014,140.002,45.000,31873.85874,2.00103,396.458,33.218,45.055,45.000,0.00,0.12,-272.56,-272.63,-24,584,-6,24.1,29.9,5.4,24.1,30.7,5.8,5.73,2.50,5.8,27.3
2013-09-05 01:01:00,0.0,1.97786,0.00030,390.792,0.037,1.1493,0.0011,140.003,45.000,31875.56974,2.00101,396.398,33.197,45.055,45.000,0.00,0.12,-272.56,-272.62,-23,584,-6,24.1,29.9,5.4,24.1,30.7,5.8,5.73,2.53,5.8,27.3
2013-09-05 01:02:00,0.0,1.97777,0.00040,390.852,0.040,1.1483,0.0023,139.999,45.000,31874.57088,2.00103,396.453,33.188,45.055,45.001,0.00,0.12,-272.55,-272.63,-24,584,-6,24.1,29.9,5.4,24.1,30.8,5.8,5.73,2.55,5.8,27.4
2013-09-05 01:03:00,0.0,1.97792,0.00038,390.842,0.035,1.1510,0.0015,140.000,45.000,31873.93596,2.00112,396.461,33.188,45.055,45.000,0.00,0.12,-272.56,-272.63,-24,584,-6,24.1,30.0,5.4,24.1,30.8,5.8,5.73,2.55,5.8,27.3
2013-09-05 01:04:00,0.0,1.97821,0.00023,390.745,0.037,1.1508,0.0021,139.998,45.000,31875.55648,2.00139,396.364,33.182,45.055,45.000,0.00,0.12,-272.56,-272.63,-24,584,-6,24.1,30.0,5.4,24.1,30.8,5.8,5.73,2.53,5.8,27.4
2013-09-05 01:05:00,0.0,1.97797,0.00046,390.832,0.038,1.1504,0.0013,140.004,45.000,31876.44181,2.00136,396.435,33.176,45.055,45.000,0.00,0.12,-272.55,-272.62,-24,583,-6,24.1,30.0,5.4,24.0,30.8,5.8,5.73,2.49,5.8,27.3
2013-09-05 01:06:00,0.0,1.97780,0.00032,390.781,0.067,1.1511,0.0015,139.999,45.000,31873.28813,2.00097,396.406,33.145,45.055,45.000,0.00,0.12,-272.56,-272.63,-24,584,-6,24.1,30.0,5.4,24.1,30.8,5.8,5.73,2.48,5.8,27.2
2013-09-05 01:07:00,0.0,1.97787,0.00020,390.772,0.032,1.1492,0.0012,139.994,45.000,31871.87101,2.00114,396.376,33.131,45.055,45.000,0.00,0.12,-272.56,-272.63,-24,584,-6,24.1,30.0,5.4,24.1,30.8,5.8,5.73,2.49,5.8,27.2
2013-09-05 01:08:00,0.0,1.97777,0.00049,390.746,0.039,1.1477,0.0013,139.999,45.000,31871.83293,2.00098,396.346,33.131,45.054,45.000,0.00,0.12,-272.55,-272.62,-24,584,-6,24.1,30.0,5.4,24.0,30.8,5.7,5.73,2.51,5.7,27.2
2013-09-05 01:09:00,0.0,1.97808,0.00031,390.730,0.038,1.1477,0.0020,140.006,45.000,31873.81999,2.00118,396.329,33.127,45.055,45.000,0.00,0.12,-272.56,-272.62,-24,584,-6,24.1,29.9,5.4,24.1,30.7,5.8,5.73,2.54,5.8,27.3
2013-09-05 01:10:00,0.0,1.97777,0.00016,390.732,0.023,1.1474,0.0017,140.003,45.000,31873.81425,2.00099,396.332,33.125,45.055,45.000,0.00,0.12,-272.56,-272.63,-24,583,-6,24.0,29.9,5.3,24.1,30.7,5.7,5.73,2.56,5.8,27.2
2013-09-05 01:11:00,0.0,1.97752,0.00026,390.708,0.034,1.1473,0.0026,140.002,45.000,31875.08976,2.00072,396.299,33.125,45.055,45.000,0.00,0.12,-272.56,-272.62,-24,583,-6,24.0,29.9,5.3,24.1,30.7,5.7,5.73,2.54,5.8,27.3
2013-09-05 01:12:00,0.0,1.97756,0.00020,390.815,0.021,1.1457,0.0016,139.999,45.000,31873.49226,2.00067,396.404,33.109,45.054,45.000,0.00,0.12,-272.56,-272.62,-24,584,-6,24.0,29.9,5.3,24.1,30.7,5.7,5.73,2.51,5.8,27.1
2013-09-05 01:13:00,0.0,1.97759,0.00039,390.787,0.033,1.1484,0.0023,140.005,45.000,31873.42771,2.00084,396.389,33.106,45.054,45.000,0.00,0.12,-272.56,-272.63,-24,584,-6,24.0,29.9,5.3,24.1,30.8,5.8,5.73,2.48,5.7,27.2
2013-09-05 01:14:00,0.0,1.97737,0.00032,390.770,0.042,1.1464,0.0023,140.009,45.000,31874.73760,2.00052,396.365,33.096,45.054,45.000,0.00,0.12,-272.56,-272.63,-24,584,-6,24.1,29.9,5.4,24.0,30.7,5.7,5.73,2.48,5.8,27.1
2013-09-05 01:15:00,0.0,1.97705,0.00017,390.791,0.040,1.1469,0.0019,140.006,45.000,31873.44717,2.00023,396.388,33.073,45.054,45.000,0.00,0.12,-272.55,-272.62,-24,583,-6,24.0,29.9,5.3,24.0,30.8,5.8,5.73,2.50,5.8,27.2
2013-09-05 01:16:00,0.0,1.97735,0.00064,390.758,0.044,1.1454,0.0016,140.005,45.000,31874.59953,2.00052,396.342,33.071,45.055,45.000,0.00,0.12,-272.56,-272.62,-23,583,-6,24.0,29.9,5.3,24.0,30.7,5.7,5.73,2.54,5.7,27.3
2013-09-05 01:17:00,0.0,1.97706,0.00022,390.802,0.019,1.1455,0.0014,140.001,45.000,31871.77603,2.00017,396.386,33.063,45.055,45.000,0.00,0.12,-272.56,-272.63,-24,584,-6,24.0,29.9,5.3,24.1,30.7,5.7,5.73,2.55,5.8,27.4
2013-09-05 01:18:00,0.0,1.97762,0.00038,390.831,0.045,1.1462,0.0025,140.001,45.000,31869.60637,2.00067,396.427,33.069,45.055,45.000,0.00,0.12,-272.56,-272.62,-24,584,-6,24.1,29.9,5.4,24.1,30.7,5.7,5.73,2.54,5.7,27.4
2013-09-05 01:19:00,0.0,1.97780,0.00048,390.861,0.050,1.1439,0.0010,140.000,45.000,31868.12320,2.00094,396.433,33.064,45.055,45.000,0.00,0.12,-272.55,-272.62,-24,583,-6,24.0,29.8,5.3,24.1,30.7,5.7,5.73,2.52,5.8,27.1
2013-09-05 01:20:00,0.0,1.97763,0.00041,390.881,0.034,1.1444,0.0016,140.003,45.000,31868.22379,2.00066,396.468,33.066,45.055,45.000,0.00,0.12,-272.56,-272.63,-24,583,-6,24.0,29.9,5.3,24.0,30.7,5.7,5.73,2.48,5.7,27.1
2013-09-05 01:21:00,0.0,1.97793,0.00046,390.849,0.025,1.1454,0.0026,140.009,45.000,31869.58966,2.00108,396.436,33.070,45.055,45.000,0.00,0.13,-272.56,-272.63,-24,583,-6,24.1,29.9,5.3,24.0,30.7,5.7,5.73,2.48,5.7,27.2
2013-09-05 01:22:00,0.0,1.97766,0.00039,390.876,0.026,1.1437,0.0031,140.005,45.000,31867.96217,2.00085,396.457,33.069,45.054,45.000,0.00,0.13,-272.55,-272.62,-24,584,-6,24.0,29.8,5.3,24.1,30.7,5.7,5.73,2.50,5.7,27.3
2013-09-05 01:23:00,0.0,1.97752,0.00051,390.889,0.054,1.1410,0.0020,139.998,45.000,31868.64959,2.00048,396.457,33.063,45.054,45.000,0.00,0.12,-272.56,-272.62,-24,584,-6,24.0,29.8,5.3,24.1,30.6,5.7,5.73,2.53,5.7,27.3
2013-09-05 01:24:00,0.0,1.97760,0.00025,390.907,0.053,1.1420,0.0019,140.001,45.000,31867.30919,2.00075,396.472,33.065,45.054,45.000,0.00,0.12,-272.56,-272.63,-24,583,-6,24.0,29.8,5.3,24.0,30.6,5.7,5.73,2.56,5.7,27.3
2013-09-05 01:25:00,0.0,1.97735,0.00055,390.955,0.025,1.1425,0.0025,140.001,45.000,31866.32582,2.00034,396.530,33.063,45.054,45.000,0.00,0.13,-272.55,-272.62,-24,583,-6,24.0,29.9,5.3,24.1,30.7,5.7,5.73,2.55,5.7,27.3
2013-09-05 01:26:00,0.0,1.97824,0.00039,390.877,0.030,1.1430,0.0012,139.998,45.000,31864.75699,2.00126,396.457,33.063,45.054,45.000,0.00,0.12,-272.55,-272.62,-24,583,-6,24.1,29.9,5.4,24.0,30.7,5.7,5.73,2.52,5.7,27.2
2013-09-05 01:27:00,0.0,1.97836,0.00018,390.892,0.026,1.1440,0.0014,140.002,45.000,31866.53012,2.00148,396.473,33.063,45.054,45.000,0.00,0.12,-272.56,-272.63,-24,583,-6,24.0,29.9,5.3,24.0,30.7,5.7,5.73,2.49,5.7,27.3
2013-09-05 01:28:00,0.0,1.97839,0.00027,390.865,0.034,1.1424,0.0011,140.004,45.000,31867.77990,2.00144,396.438,33.063,45.054,45.000,0.00,0.12,-272.55,-272.62,-24,584,-6,24.0,29.9,5.3,24.1,30.7,5.7,5.73,2.47,5.7,27.4
2013-09-05 01:29:00,0.0,1.97855,0.00024,390.913,0.053,1.1426,0.0022,140.005,45.000,31867.44054,2.00164,396.489,33.063,45.054,45.000,0.00,0.12,-272.55,-272.62,-24,583,-6,24.0,29.8,5.3,24.0,30.6,5.7,5.73,2.49,5.7,27.4
2013-09-05 01:30:00,0.0,1.97836,0.00017,390.935,0.036,1.1418,0.0022,140.001,45.000,31865.95118,2.00145,396.502,33.063,45.054,45.000,0.00,0.12,-272.56,-272.63,-24,583,-6,24.0,29.8,5.3,24.0,30.6,5.7,5.73,2.53,5.7,27.1
2013-09-05 01:31:00,0.0,1.97884,0.00036,390.931,0.053,1.1411,0.0015,140.005,45.000,31866.05403,2.00189,396.505,33.062,45.054,45.000,0.00,0.12,-272.56,-272.63,-24,583,-6,24.0,29.8,5.3,24.0,30.6,5.7,5.73,2.55,5.7,27.2
2013-09-05 01:32:00,0.0,1.97776,0.00033,390.869,0.032,1.1402,0.0016,140.003,45.000,31867.48154,2.00084,396.427,33.063,45.054,45.000,0.00,0.12,-272.56,-272.62,-24,583,-6,24.0,29.8,5.3,24.0,30.6,5.7,5.73,2.55,5.7,27.2
2013-09-05 01:33:00,0.0,1.97757,0.00048,390.933,0.032,1.1416,0.0013,140.005,45.000,31868.08166,2.00065,396.502,33.058,45.054,45.000,0.00,0.12,-272.56,-272.63,-24,584,-6,24.0,29.9,5.3,24.0,30.6,5.7,5.73,2.53,5.7,27.3
2013-09-05 01:34:00,0.0,1.97796,0.00050,390.923,0.046,1.1417,0.0021,139.999,45.000,31865.70173,2.00092,396.491,33.059,45.054,45.000,0.00,0.12,-272.56,-272.63,-24,583,-6,24.0,29.9,5.3,24.0,30.7,5.7,5.73,2.50,5.7,27.4
2013-09-05 01:35:00,0.0,1.97837,0.00051,390.990,0.040,1.1423,0.0020,140.004,45.000,31865.96055,2.00151,396.564,33.034,45.054,45.000,0.00,0.12,-272.56,-272.63,-24,583,-6,24.0,29.9,5.3,24.0,30.7,5.7,5.73,2.48,5.7,27.4
2013-09-05 01:36:00,0.0,1.97809,0.00029,390.932,0.036,1.1419,0.0018,140.001,45.000,31866.20473,2.00111,396.505,33.049,45.055,45.000,0.00,0.12,-272.56,-272.62,-24,583,-6,24.0,29.9,5.3,24.0,30.7,5.6,5.73,2.48,5.7,27.3
2013-09-05 01:37:00,0.0,1.97811,0.00024,390.960,0.022,1.1427,0.0017,140.001,45.000,31865.99037,2.00119,396.535,33.042,45.055,45.000,0.00,0.12,-272.56,-272.62,-23,583,-6,24.0,29.9,5.3,24.0,30.7,5.7,5.73,2.52,5.7,27.4
2013-09-05 01:38:00,0.0,1.97818,0.00020,390.997,0.039,1.1437,0.0020,140.004,45.000,31866.38767,2.00131,396.576,33.057,45.055,45.000,0.00,0.12,-272.56,-272.63,-24,583,-6,24.0,30.0,5.3,24.0,30.7,5.7,5.73,2.55,5.7,27.4
2013-09-05 01:39:00,0.0,1.97811,0.00031,390.950,0.029,1.1430,0.0017,140.004,45.000,31864.69742,2.00125,396.533,33.055,45.054,45.000,0.00,0.12,-272.56,-272.62,-24,583,-6,24.0,29.9,5.3,24.0,30.8,5.7,5.73,2.55,5.7,27.4
2013-09-05 01:40:00,0.0,1.97769,0.00056,390.940,0.037,1.1435,0.0015,139.998,45.000,31862.82400,2.00078,396.519,33.051,45.054,45.000,0.00,0.12,-272.56,-272.62,-24,583,-6,24.0,30.0,5.4,24.0,30.8,5.7,5.73,2.54,5.7,27.4
2013-09-05 01:41:00,0.0,1.97813,0.00030,390.954,0.026,1.1434,0.0015,140.005,45.000,31864.19007,2.00119,396.528,33.031,45.054,45.000,0.00,0.12,-272.56,-272.62,-24,583,-6,24.0,30.0,5.3,24.0,30.8,5.7,5.73,2.51,5.7,27.5
2013-09-05 01:42:00,0.0,1.97742,0.00053,390.953,0.032,1.1436,0.0015,140.002,45.000,31863.75588,2.00062,396.534,33.046,45.054,45.000,0.00,0.12,-272.55,-272.62,-24,583,-6,24.0,30.0,5.4,24.0,30.8,5.7,5.73,2.48,5.7,27.4
2013-09-05 01:43:00,0.0,1.97759,0.00036,390.963,0.037,1.1450,0.0018,140.003,45.000,31861.04746,2.00066,396.551,33.058,45.055,45.000,0.00,0.12,-272.56,-272.62,-24,583,-6,24.0,30.0,5.3,24.0,30.7,5.7,5.73,2.48,5.7,27.3
2013-09-05 01:44:00,0.0,1.97780,0.00031,390.999,0.024,1.1432,0.0016,139.998,45.000,31859.86378,2.00079,396.577,33.063,45.055,45.000,0.00,0.12,-272.56,-272.63,-24,583,-6,24.0,30.0,5.3,24.0,30.8,5.7,5.73,2.50,5.7,27.0
2013-09-05 01:45:00,0.0,1.97758,0.00050,390.960,0.046,1.1468,0.0015,140.001,45.000,31860.55671,2.00079,396.559,33.057,45.054,45.000,0.00,0.12,-272.55,-272.62,-24,583,-6,24.0,30.0,5.3,24.0,30.8,5.7,5.73,2.53,5.7,27.3
2013-09-05 01:46:00,0.0,1.97786,0.00032,390.953,0.023,1.1461,0.0020,140.003,45.000,31861.80142,2.00095,396.544,33.062,45.054,45.000,0.00,0.12,-272.56,-272.62,-24,583,-6,24.0,30.1,5.3,24.0,30.9,5.7,5.73,2.56,5.7,27.3
2013-09-05 01:47:00,0.0,1.97731,0.00049,390.880,0.052,1.1482,0.0022,139.998,45.000,31859.96846,2.00061,396.490,33.059,45.054,45.000,0.00,0.12,-272.56,-272.63,-23,583,-6,24.0,30.1,5.4,24.0,30.9,5.7,5.73,2.55,5.7,27.3